Weather History for Quillayute, WA

Change the Weather History Date:

Monday, April 9, 2012

  Actual Average Record
Temperature  
Mean Temperature 54 °F 46 °F  
Max Temperature 62 °F 54 °F 69 °F (1985)
Min Temperature 46 °F 38 °F 27 °F (1982)
Degree Days  
Heating Degree Days 11 19  
Month to date heating degree days 174  
Since 1 July heating degree days 4667  
Cooling Degree Days 0 0  
Month to date cooling degree days 0  
Year to date cooling degree days 0  
Growing Degree Days 4 (Base 50)    
Moisture  
Dew Point 44 °F    
Average Humidity 74    
Maximum Humidity 96    
Minimum Humidity 38    
Precipitation  
Precipitation T in 0.27 in 1.92 in (1970)
Month to date precipitation 2.65  
Year to date precipitation 38.44  
Sea Level Pressure  
Sea Level Pressure 29.94 in    
Wind  
Wind Speed 3 mph (SSW)    
Max Wind Speed 12 mph    
Max Gust Speed 15 mph    
Visibility 10 miles    
Events Rain    
T = Trace of Precipitation, MM = Missing Value Source: NWS Daily Summary

Daily Weather History Graph

Daily Weather History Graph

Search for Another Location

Airport:

Trip Planner

Search our weather history database for the weather conditions in past years. The results will help you decide how hot, cold, wet, or windy it might be!

Date:

Astronomy

Apr. 09, 2012 Rise Set
Actual Time 6:39 AM PDT 8:00 PM PDT
Civil Twilight 6:07 AM PDT 8:32 PM PDT
Nautical Twilight 5:28 AM PDT 9:11 PM PDT
Astronomical Twilight 4:46 AM PDT 9:53 PM PDT
Moon No Moon Rise 8:14 AM PDT (4/9)
Length of Visible Light 14h 25m
Length of Day
13h 21m
Waning Gibbous, 87% of the Moon is Illuminated
Apr 9
Waning Gibbous
Apr 13
Last Quarter
Apr 21
New
Apr 29
First Quarter
May 5
Full

Hourly Weather History & Observations

Time (PDT) Temp. Windchill Dew Point Humidity Pressure Visibility Wind Dir Wind Speed Gust Speed Precip Events Conditions
12:53 AM 48.9 °F - 41.0 °F 74% 29.98 in 10.0 mi Calm Calm - N/A   Overcast
1:53 AM 48.9 °F - 42.1 °F 77% 29.99 in 10.0 mi Calm Calm - N/A   Scattered Clouds
2:53 AM 48.0 °F - 42.1 °F 80% 30.00 in 10.0 mi Calm Calm - N/A   Clear
3:53 AM 46.9 °F - 43.0 °F 86% 29.99 in 10.0 mi Calm Calm - N/A   Partly Cloudy
4:53 AM 46.0 °F 44.8 °F 42.1 °F 86% 29.98 in 10.0 mi NE 3.5 mph - N/A   Mostly Cloudy
5:53 AM 46.0 °F - 42.1 °F 86% 29.97 in 10.0 mi Calm Calm - N/A   Overcast
6:53 AM 46.0 °F - 41.0 °F 83% 29.97 in 10.0 mi Calm Calm - N/A   Overcast
7:53 AM 48.9 °F - 41.0 °F 74% 29.97 in 10.0 mi East 3.5 mph - N/A   Overcast
8:53 AM 51.1 °F - 41.0 °F 68% 29.97 in 10.0 mi East 5.8 mph - N/A   Mostly Cloudy
9:53 AM 55.9 °F - 42.1 °F 60% 29.97 in 10.0 mi East 4.6 mph - N/A   Clear
10:53 AM 60.1 °F - 41.0 °F 49% 29.96 in 10.0 mi South 4.6 mph - N/A   Clear
11:53 AM 60.1 °F - 39.0 °F 46% 29.96 in 10.0 mi SSW 6.9 mph - N/A   Clear
12:53 PM 57.9 °F - 39.9 °F 51% 29.95 in 10.0 mi SSW 5.8 mph - N/A   Clear
1:53 PM 60.1 °F - 41.0 °F 49% 29.93 in 10.0 mi Variable 4.6 mph - N/A   Partly Cloudy
2:53 PM 61.0 °F - 43.0 °F 52% 29.93 in 10.0 mi Variable 5.8 mph - N/A   Partly Cloudy
3:53 PM 57.0 °F - 46.0 °F 67% 29.93 in 10.0 mi West 8.1 mph - N/A   Overcast
4:53 PM 54.0 °F - 45.0 °F 72% 29.93 in 10.0 mi WSW 6.9 mph - N/A   Overcast
5:53 PM 53.1 °F - 46.9 °F 80% 29.93 in 10.0 mi WSW 4.6 mph - 0.00 in Rain Light Rain
6:53 PM 52.0 °F - 48.0 °F 86% 29.92 in 10.0 mi Calm Calm - 0.00 in   Overcast
7:53 PM 51.1 °F - 48.9 °F 92% 29.91 in 10.0 mi Calm Calm - N/A   Overcast
8:53 PM 50.0 °F - 48.9 °F 96% 29.90 in 10.0 mi Calm Calm - N/A   Overcast
9:53 PM 50.0 °F - 48.0 °F 93% 29.89 in 10.0 mi NNE 3.5 mph - N/A   Overcast
10:53 PM 48.0 °F - 46.9 °F 96% 29.87 in 10.0 mi NNW 3.5 mph - N/A   Overcast
11:53 PM 48.0 °F - 46.0 °F 93% 29.86 in 10.0 mi North 3.5 mph - N/A   Clear